Location: Kalisz
(51.7636°N, 18.0893°E)
Time: 22:38:30
(UTC+02:00)

ISS - Pass Details

Date: 27 March 2019
Orbit: 408 x 410 km, 51.6° (Epoch: 23 April)

Event Time Altitude Azimuth Distance (km) Brightness Sun altitude
Rises 20:09:17 0° 265° (W) 2,336 1.0 -18.0°
Reaches altitude 10° 20:11:22 10° 266° (W) 1,475 -0.2 -18.3°
Maximum altitude 20:14:41 89° 174° (S) 415 -3.9 -18.7°
Enters shadow 20:14:59 72° 89° (E) 434 -4.0 -18.8°
